Buoy 46611

sailwx.info

Track history (hours):
 
Tides and Currents Weather Stations Pressure Air Temp Water Temp Dewpoint Dewpoint Depression Visibility Wind Speed Wind Dir Waves Ship Positions

Drifting buoy 46611

Last reported at 2014-Jul-26 06:00 UTC. Time now 2014-Jul-26 09:14 UTC.
Position N 48°52' W 143°37'.

Barometer 1013.4 mb
Water temperature 13.6 ° C

Date/timePositionNaut miles runAvg speedWind from/ knotsBaromVisibWave heightAir tempDewpointWater temp
2014-Jul-26 06:00N 48°52' W 143°37'0 0.1 1013.4 13.6
2014-Jul-26 04:00N 48°52' W 143°37'0 0.1 1013.4 13.6
2014-Jul-26 03:00N 48°52' W 143°37'1 0.7 1013.6 13.6
2014-Jul-26 01:00N 48°51' W 143°39'0 0.0 1013.9 13.6
2014-Jul-26 00:00N 48°51' W 143°39'1 0.8 1014.1 13.6
2014-Jul-25 23:00N 48°52' W 143°38'0 0.4 1014.3 13.6
2014-Jul-25 22:00N 48°52' W 143°39'0 0.0 1014.5 13.5
2014-Jul-25 21:00N 48°52' W 143°39'1 0.3 1014.4 13.5
2014-Jul-25 19:00N 48°53' W 143°39'0 0.4 1014.7 13.5
2014-Jul-25 18:00N 48°53' W 143°39'0 0.0 1014.8 13.5
2014-Jul-25 17:00N 48°53' W 143°39'1 0.6 1014.9 13.5
2014-Jul-25 15:00N 48°53' W 143°40'0 0.4 1015.0 13.5
2014-Jul-25 14:00N 48°53' W 143°41'1 0.8 1015.3 13.5
2014-Jul-25 13:00N 48°53' W 143°42'0 0.0 1015.5 13.5
2014-Jul-25 12:00N 48°53' W 143°42'1 1.1 1016.0 13.5
2014-Jul-25 11:00N 48°53' W 143°41'0 0.0 1016.5 13.5
2014-Jul-25 08:00N 48°53' W 143°41'0 0.4 1018.0 13.5
2014-Jul-25 07:00N 48°54' W 143°40'0 0.0 1018.6 13.5
2014-Jul-25 06:00N 48°54' W 143°40'2 2.1 1019.1 13.5
2014-Jul-25 05:00N 48°55' W 143°43'0 0.0 1019.2 13.5
2014-Jul-25 04:00N 48°55' W 143°43'0 0.0 1019.6 13.5
2014-Jul-25 03:00N 48°55' W 143°43'0 0.0 1020.0 13.5
2014-Jul-25 02:00N 48°55' W 143°43'1 1.4 1020.5 13.6
2014-Jul-25 01:00N 48°55' W 143°45'0 0.3 1021.1 13.6
2014-Jul-25 00:00N 48°55' W 143°45'0 0.5 1021.7 13.6
2014-Jul-24 23:00N 48°55' W 143°45'1 0.5 1022.1 13.6
2014-Jul-24 22:00N 48°54' W 143°46'0 0.0 1022.4 13.6
2014-Jul-24 21:00N 48°54' W 143°46'1 0.9 1022.7 13.5
2014-Jul-24 20:00N 48°54' W 143°44'0 0.0 1022.8 13.5
2014-Jul-24 19:00N 48°54' W 143°44'1 0.7 1022.9 13.5
2014-Jul-24 18:00N 48°54' W 143°43'1 1.1 1023.3 13.4
2014-Jul-24 17:00N 48°55' W 143°43'1 0.7 1023.3 13.4
2014-Jul-24 16:00N 48°55' W 143°44'1 0.9 1023.2 13.4
2014-Jul-24 15:00N 48°56' W 143°43'0 0.0 1023.2 13.4
2014-Jul-24 14:00N 48°56' W 143°43'2 0.7 1023.2 13.5
2014-Jul-24 11:00N 48°57' W 143°46'0 0.5 1023.3 13.5
2014-Jul-24 10:00N 48°57' W 143°47'0 0.0 1023.5 13.5
2014-Jul-24 09:00N 48°57' W 143°47'0 0.0 1024.3 13.5
2014-Jul-24 08:00N 48°57' W 143°47'0 0.4 1025.0 13.5
2014-Jul-24 07:00N 48°57' W 143°46'0 0.0 1025.4 13.5
2014-Jul-24 06:00N 48°57' W 143°46'0 0.0 1025.8 13.5
2014-Jul-24 05:00N 48°57' W 143°46'0 0.4 1025.7 13.5
2014-Jul-24 04:00N 48°57' W 143°47'1 0.5 1025.9 13.6
2014-Jul-24 02:00N 48°57' W 143°48'0 0.2 1026.1 13.6
2014-Jul-24 00:00N 48°57' W 143°47'1 0.6 1026.5 13.5
2014-Jul-23 23:00N 48°58' W 143°48'0 0.4 1026.6 13.5
2014-Jul-23 22:00N 48°57' W 143°48'0 0.2 1026.5 13.5
2014-Jul-23 21:00N 48°57' W 143°48'0 0.0 1026.5 13.4
2014-Jul-23 20:00N 48°57' W 143°48'1 0.5 1026.4 13.4
2014-Jul-23 18:00N 48°59' W 143°48'1 0.6 1026.4 13.4
2014-Jul-23 16:00N 48°59' W 143°49'0 0.0 1026.4 13.3
2014-Jul-23 14:00N 48°59' W 143°49'1 0.6 1026.6 13.4
2014-Jul-23 13:00N 48°59' W 143°50'1 0.6 1026.9 13.4
2014-Jul-23 12:00N 48°58' W 143°50'1 0.3 1027.2 13.4
2014-Jul-23 10:00N 48°59' W 143°49'2 0.6 1028.1 13.4
2014-Jul-23 07:00N 49°00' W 143°50'0 0.0 1028.4 13.5
2014-Jul-23 06:00N 49°00' W 143°50'2 0.9 1028.3 13.5
2014-Jul-23 04:00N 49°01' W 143°47'2 0.8 1028.0 13.5
2014-Jul-23 02:00N 49°01' W 143°50'1 1.0 1028.3 13.6
2014-Jul-23 01:00N 49°01' W 143°51'1 0.8 1028.2 13.5
2014-Jul-23 00:00N 49°01' W 143°50'2 1.7 1028.2 13.5
2014-Jul-22 23:00N 49°01' W 143°53'1 1.0 1028.1 13.4
2014-Jul-22 22:00N 49°01' W 143°51'0 0.3 1027.8 13.4
2014-Jul-22 21:00N 49°01' W 143°51'0 0.3 1027.6 13.3
2014-Jul-22 20:00N 49°01' W 143°52'1 1.4 1027.3 13.2
2014-Jul-22 19:00N 49°01' W 143°50'0 0.0 1027.1 13.2
2014-Jul-22 18:00N 49°01' W 143°50'0 0.0 1026.6 13.2
2014-Jul-22 17:00N 49°01' W 143°50'1 0.5 1026.3 13.2
2014-Jul-22 15:00N 49°01' W 143°48'3 1.7 1025.2 13.2
2014-Jul-22 13:00N 49°03' W 143°53'2 0.6 1024.5 13.2
2014-Jul-22 10:00N 49°04' W 143°50'0 0.0 1024.3 13.2
2014-Jul-22 09:00N 49°04' W 143°50'1 0.2 1023.8 13.2
2014-Jul-22 06:00N 49°04' W 143°49'0 0.0 1022.5 13.3
2014-Jul-22 05:00N 49°04' W 143°49'0 0.0 1022.1 13.3
2014-Jul-22 04:00N 49°04' W 143°49'0 0.4 1021.5 13.3
2014-Jul-22 03:00N 49°04' W 143°50'0 0.0 1021.3 13.3
2014-Jul-22 02:00N 49°04' W 143°50'0 0.4 1021.3 13.3
2014-Jul-22 01:00N 49°04' W 143°49'1 0.3 1021.3 13.3
2014-Jul-21 23:00N 49°05' W 143°49'2 0.9 1021.1 13.3
2014-Jul-21 21:00N 49°06' W 143°48'0 0.0 1020.7 13.2
2014-Jul-21 20:00N 49°06' W 143°48'0 0.4 1020.3 13.2
2014-Jul-21 19:00N 49°07' W 143°48'0 0.0 1020.0 13.1
2014-Jul-21 18:00N 49°07' W 143°48'0 0.0 1019.8 13.1
2014-Jul-21 17:00N 49°07' W 143°48'1 1.0 1019.9 13.1
2014-Jul-21 16:00N 49°07' W 143°49'0 0.1 1019.9 13.1
2014-Jul-21 12:00N 49°08' W 143°49'2 0.8 1019.8 13.1
2014-Jul-21 10:00N 49°09' W 143°47'0 0.0 1020.2 13.1
2014-Jul-21 09:00N 49°09' W 143°47'0 0.0 1020.4 13.1
2014-Jul-21 08:00N 49°09' W 143°47'1 0.9 1020.6 13.1
2014-Jul-21 07:00N 49°10' W 143°47'0 0.0 1020.8 13.1
2014-Jul-21 05:00N 49°10' W 143°47'2 1.9 1020.8 13.2
2014-Jul-21 04:00N 49°12' W 143°48'1 0.7 1021.1 13.2
2014-Jul-21 02:00N 49°12' W 143°50'0 0.0 1021.7 13.2
2014-Jul-21 01:00N 49°12' W 143°50'1 0.9 1022.1 13.2
2014-Jul-21 00:00N 49°11' W 143°50'3 1.5 1022.5 13.2
2014-Jul-20 22:00N 49°12' W 143°46'3 1.4 1023.1 13.2
2014-Jul-20 20:00N 49°11' W 143°50'1 0.8 1023.5 13.2
2014-Jul-20 19:00N 49°12' W 143°49'1 1.3 1023.3 13.2
2014-Jul-20 18:00N 49°12' W 143°47'0 0.0 1023.3 13.2
2014-Jul-20 17:00N 49°12' W 143°47'1 1.3 1023.3 13.2
2014-Jul-20 16:00N 49°14' W 143°47'3 2.8 1023.3 13.2
2014-Jul-20 15:00N 49°14' W 143°51'2 2.5 1023.1 13.2
2014-Jul-20 14:00N 49°14' W 143°47'1 1.1 1022.9 13.3
2014-Jul-20 13:00N 49°15' W 143°49'1 0.8 1022.9 13.3
2014-Jul-20 12:00N 49°15' W 143°50'1 0.4 1023.1 13.3
2014-Jul-20 10:00N 49°15' W 143°48'0 0.0 1023.1 13.3
2014-Jul-20 06:00N 49°15' W 143°48'1 0.8 1022.6 13.7
2014-Jul-20 05:00N 49°16' W 143°49'1 1.5 1022.3 13.7
2014-Jul-20 04:00N 49°16' W 143°47'0 0.0 1022.2 13.9
2014-Jul-20 03:00N 49°16' W 143°47'0 0.1 1022.4 13.8
2014-Jul-20 00:00N 49°16' W 143°47'1 1.0 1023.1 13.4
2014-Jul-19 23:00N 49°17' W 143°47'0 0.0 1023.3 13.3
2014-Jul-19 22:00N 49°17' W 143°47'1 0.7 1023.4 13.2
2014-Jul-19 21:00N 49°18' W 143°47'0 0.0 1023.6 13.1
2014-Jul-19 20:00N 49°18' W 143°47'1 1.5 1023.3 13.1
2014-Jul-19 19:00N 49°19' W 143°48'1 0.7 1023.5 13.0
2014-Jul-19 18:00N 49°19' W 143°48'0 0.0 1023.3 13.0
2014-Jul-19 15:00N 49°19' W 143°48'0 0.0 1022.2 13.0
2014-Jul-19 14:00N 49°19' W 143°48'0 0.4 1021.8 13.0
2014-Jul-19 13:00N 49°19' W 143°47'1 0.7 1021.7 13.0
2014-Jul-19 12:00N 49°20' W 143°47'2 2.3 1021.8 13.0
2014-Jul-19 11:00N 49°22' W 143°48'0 0.0 1021.6 13.0
2014-Jul-19 08:00N 49°22' W 143°48'2 1.8 1020.5 13.0
2014-Jul-19 07:00N 49°24' W 143°47'0 0.0 1019.9 13.1
2014-Jul-19 06:00N 49°24' W 143°47'0 0.0 1019.2 13.1
2014-Jul-19 05:00N 49°24' W 143°47'0 0.0 1018.6 13.1
2014-Jul-19 04:00N 49°24' W 143°47'2 1.9 1018.4 13.1
2014-Jul-19 03:00N 49°25' W 143°48'0 0.0 1017.8 13.1
2014-Jul-19 02:00N 49°25' W 143°48'1 0.5 1017.8 13.1
2014-Jul-19 01:00N 49°25' W 143°48'1 0.8 1018.0 13.1
2014-Jul-19 00:00N 49°25' W 143°49'1 0.7 1017.8 13.1
2014-Jul-18 23:00N 49°26' W 143°48'0 0.0 1018.2 13.1
2014-Jul-18 21:00N 49°26' W 143°48'4 1.1 1018.3 13.1
2014-Jul-18 17:00N 49°30' W 143°49'0 0.0 1018.5 13.1
2014-Jul-18 16:00N 49°30' W 143°49'2 1.8 1018.2 13.1
2014-Jul-18 15:00N 49°31' W 143°52'0 0.0 1018.7 13.1
2014-Jul-18 14:00N 49°31' W 143°52'0 0.4 1018.8 13.1
2014-Jul-18 13:00N 49°31' W 143°52'1 0.4 1019.3 13.1
2014-Jul-18 11:00N 49°32' W 143°52'0 0.0 1020.2 13.1
2014-Jul-18 06:00N 49°32' W 143°52'1 1.0 1021.1 13.2
2014-Jul-18 05:00N 49°33' W 143°53'2 2.5 1021.1 13.2
2014-Jul-18 04:00N 49°35' W 143°52'0 0.0 1021.5 13.2
2014-Jul-18 03:00N 49°35' W 143°52'2 1.1 1021.8 13.2
2014-Jul-18 01:00N 49°37' W 143°54'1 1.4 1022.5 13.2
2014-Jul-18 00:00N 49°37' W 143°56'1 0.7 1022.8 13.2
2014-Jul-17 23:00N 49°38' W 143°56'3 1.3 1023.4 13.2
2014-Jul-17 21:00N 49°37' W 143°60'0 0.3 1024.5 13.2
2014-Jul-17 20:00N 49°37' W 143°60'1 0.3 1024.5 13.2
2014-Jul-17 18:00N 49°37' W 144°01'0 0.0 1025.1 13.1
2014-Jul-17 17:00N 49°37' W 144°01'1 1.5 1025.7 13.1
2014-Jul-17 16:00N 49°37' W 143°58'1 1.4 1025.8 13.1
2014-Jul-17 15:00N 49°39' W 143°58'1 0.9 1026.2 13.2
2014-Jul-17 14:00N 49°39' W 143°60'2 2.0 1026.5 13.1
2014-Jul-17 13:00N 49°41' W 144°01'0 0.0 1026.9 13.2
2014-Jul-17 12:00N 49°41' W 144°01'2 0.4 1026.9 13.2
2014-Jul-17 07:00N 49°41' W 144°04'0 0.4 1028.6 13.2
2014-Jul-17 06:00N 49°40' W 144°04'2 1.6 1028.4 13.2
2014-Jul-17 05:00N 49°40' W 144°02'0 0.0 1028.2 13.2
2014-Jul-17 04:00N 49°40' W 144°02'1 0.6 1028.2 13.2
2014-Jul-17 03:00N 49°41' W 144°02'0 0.0 1028.1 13.2
2014-Jul-17 02:00N 49°41' W 144°02'1 0.6 1028.2 13.2
2014-Jul-17 01:00N 49°42' W 144°03'0 0.1 1028.5 13.2
2014-Jul-17 00:00N 49°42' W 144°03'1 0.9 1028.8 13.2
2014-Jul-16 23:00N 49°42' W 144°04'1 1.0 1029.0 13.2
2014-Jul-16 22:00N 49°43' W 144°03'0 0.0 1029.0 13.2
2014-Jul-16 21:00N 49°43' W 144°03'1 1.1 1029.0 13.1
2014-Jul-16 20:00N 49°44' W 144°03'3 2.7 1028.9 13.1
2014-Jul-16 19:00N 49°44' W 144°07'0 0.0 1028.7 13.1
2014-Jul-16 18:00N 49°44' W 144°07'0 0.2 1028.6 13.1
2014-Jul-16 16:00N 49°44' W 144°08'0 0.4 1028.1 13.1
2014-Jul-16 15:00N 49°45' W 144°08'1 0.7 1027.4 13.1
2014-Jul-16 14:00N 49°44' W 144°08'1 0.9 1027.1 13.1
2014-Jul-16 13:00N 49°44' W 144°09'0 0.3 1026.9 13.1
2014-Jul-16 12:00N 49°45' W 144°09'0 0.0 1026.6 13.1
2014-Jul-16 11:00N 49°45' W 144°09'0 0.1 1026.4 13.1
2014-Jul-16 10:00N 49°45' W 144°09'1 0.3 1026.4 13.1
2014-Jul-16 08:00N 49°45' W 144°08'1 0.7 1025.9 13.2
2014-Jul-16 07:00N 49°46' W 144°09'   1025.8 13.2
Track history (hours):
 
Tides and Currents Weather Stations Pressure Air Temp Water Temp Dewpoint Dewpoint Depression Visibility Wind Speed Wind Dir Waves Ship Positions

Drifting buoy 46611

Last reported at 2014-Jul-26 06:00 UTC. Time now 2014-Jul-26 09:14 UTC.
Position N 48°52' W 143°37'.

Barometer 1013.4 mb
Water temperature 13.6 ° C

Date/timePositionNaut miles runAvg speedWind from/ knotsBaromVisibWave heightAir tempDewpointWater temp
2014-Jul-26 06:00N 48°52' W 143°37'0 0.1 1013.4 13.6
2014-Jul-26 04:00N 48°52' W 143°37'0 0.1 1013.4 13.6
2014-Jul-26 03:00N 48°52' W 143°37'1 0.7 1013.6 13.6
2014-Jul-26 01:00N 48°51' W 143°39'0 0.0 1013.9 13.6
2014-Jul-26 00:00N 48°51' W 143°39'1 0.8 1014.1 13.6
2014-Jul-25 23:00N 48°52' W 143°38'0 0.4 1014.3 13.6
2014-Jul-25 22:00N 48°52' W 143°39'0 0.0 1014.5 13.5
2014-Jul-25 21:00N 48°52' W 143°39'1 0.3 1014.4 13.5
2014-Jul-25 19:00N 48°53' W 143°39'0 0.4 1014.7 13.5
2014-Jul-25 18:00N 48°53' W 143°39'0 0.0 1014.8 13.5
2014-Jul-25 17:00N 48°53' W 143°39'1 0.6 1014.9 13.5
2014-Jul-25 15:00N 48°53' W 143°40'0 0.4 1015.0 13.5
2014-Jul-25 14:00N 48°53' W 143°41'1 0.8 1015.3 13.5
2014-Jul-25 13:00N 48°53' W 143°42'0 0.0 1015.5 13.5
2014-Jul-25 12:00N 48°53' W 143°42'1 1.1 1016.0 13.5
2014-Jul-25 11:00N 48°53' W 143°41'0 0.0 1016.5 13.5
2014-Jul-25 08:00N 48°53' W 143°41'0 0.4 1018.0 13.5
2014-Jul-25 07:00N 48°54' W 143°40'0 0.0 1018.6 13.5
2014-Jul-25 06:00N 48°54' W 143°40'2 2.1 1019.1 13.5
2014-Jul-25 05:00N 48°55' W 143°43'0 0.0 1019.2 13.5
2014-Jul-25 04:00N 48°55' W 143°43'0 0.0 1019.6 13.5
2014-Jul-25 03:00N 48°55' W 143°43'0 0.0 1020.0 13.5
2014-Jul-25 02:00N 48°55' W 143°43'1 1.4 1020.5 13.6
2014-Jul-25 01:00N 48°55' W 143°45'0 0.3 1021.1 13.6
2014-Jul-25 00:00N 48°55' W 143°45'0 0.5 1021.7 13.6
2014-Jul-24 23:00N 48°55' W 143°45'1 0.5 1022.1 13.6
2014-Jul-24 22:00N 48°54' W 143°46'0 0.0 1022.4 13.6
2014-Jul-24 21:00N 48°54' W 143°46'1 0.9 1022.7 13.5
2014-Jul-24 20:00N 48°54' W 143°44'0 0.0 1022.8 13.5
2014-Jul-24 19:00N 48°54' W 143°44'1 0.7 1022.9 13.5
2014-Jul-24 18:00N 48°54' W 143°43'1 1.1 1023.3 13.4
2014-Jul-24 17:00N 48°55' W 143°43'1 0.7 1023.3 13.4
2014-Jul-24 16:00N 48°55' W 143°44'1 0.9 1023.2 13.4
2014-Jul-24 15:00N 48°56' W 143°43'0 0.0 1023.2 13.4
2014-Jul-24 14:00N 48°56' W 143°43'2 0.7 1023.2 13.5
2014-Jul-24 11:00N 48°57' W 143°46'0 0.5 1023.3 13.5
2014-Jul-24 10:00N 48°57' W 143°47'0 0.0 1023.5 13.5
2014-Jul-24 09:00N 48°57' W 143°47'0 0.0 1024.3 13.5
2014-Jul-24 08:00N 48°57' W 143°47'0 0.4 1025.0 13.5
2014-Jul-24 07:00N 48°57' W 143°46'0 0.0 1025.4 13.5
2014-Jul-24 06:00N 48°57' W 143°46'0 0.0 1025.8 13.5
2014-Jul-24 05:00N 48°57' W 143°46'0 0.4 1025.7 13.5
2014-Jul-24 04:00N 48°57' W 143°47'1 0.5 1025.9 13.6
2014-Jul-24 02:00N 48°57' W 143°48'0 0.2 1026.1 13.6
2014-Jul-24 00:00N 48°57' W 143°47'1 0.6 1026.5 13.5
2014-Jul-23 23:00N 48°58' W 143°48'0 0.4 1026.6 13.5
2014-Jul-23 22:00N 48°57' W 143°48'0 0.2 1026.5 13.5
2014-Jul-23 21:00N 48°57' W 143°48'0 0.0 1026.5 13.4
2014-Jul-23 20:00N 48°57' W 143°48'1 0.5 1026.4 13.4
2014-Jul-23 18:00N 48°59' W 143°48'1 0.6 1026.4 13.4
2014-Jul-23 16:00N 48°59' W 143°49'0 0.0 1026.4 13.3
2014-Jul-23 14:00N 48°59' W 143°49'1 0.6 1026.6 13.4
2014-Jul-23 13:00N 48°59' W 143°50'1 0.6 1026.9 13.4
2014-Jul-23 12:00N 48°58' W 143°50'1 0.3 1027.2 13.4
2014-Jul-23 10:00N 48°59' W 143°49'2 0.6 1028.1 13.4
2014-Jul-23 07:00N 49°00' W 143°50'0 0.0 1028.4 13.5
2014-Jul-23 06:00N 49°00' W 143°50'2 0.9 1028.3 13.5
2014-Jul-23 04:00N 49°01' W 143°47'2 0.8 1028.0 13.5
2014-Jul-23 02:00N 49°01' W 143°50'1 1.0 1028.3 13.6
2014-Jul-23 01:00N 49°01' W 143°51'1 0.8 1028.2 13.5
2014-Jul-23 00:00N 49°01' W 143°50'2 1.7 1028.2 13.5
2014-Jul-22 23:00N 49°01' W 143°53'1 1.0 1028.1 13.4
2014-Jul-22 22:00N 49°01' W 143°51'0 0.3 1027.8 13.4
2014-Jul-22 21:00N 49°01' W 143°51'0 0.3 1027.6 13.3
2014-Jul-22 20:00N 49°01' W 143°52'1 1.4 1027.3 13.2
2014-Jul-22 19:00N 49°01' W 143°50'0 0.0 1027.1 13.2
2014-Jul-22 18:00N 49°01' W 143°50'0 0.0 1026.6 13.2
2014-Jul-22 17:00N 49°01' W 143°50'1 0.5 1026.3 13.2
2014-Jul-22 15:00N 49°01' W 143°48'3 1.7 1025.2 13.2
2014-Jul-22 13:00N 49°03' W 143°53'2 0.6 1024.5 13.2
2014-Jul-22 10:00N 49°04' W 143°50'0 0.0 1024.3 13.2
2014-Jul-22 09:00N 49°04' W 143°50'1 0.2 1023.8 13.2
2014-Jul-22 06:00N 49°04' W 143°49'0 0.0 1022.5 13.3
2014-Jul-22 05:00N 49°04' W 143°49'0 0.0 1022.1 13.3
2014-Jul-22 04:00N 49°04' W 143°49'0 0.4 1021.5 13.3
2014-Jul-22 03:00N 49°04' W 143°50'0 0.0 1021.3 13.3
2014-Jul-22 02:00N 49°04' W 143°50'0 0.4 1021.3 13.3
2014-Jul-22 01:00N 49°04' W 143°49'1 0.3 1021.3 13.3
2014-Jul-21 23:00N 49°05' W 143°49'2 0.9 1021.1 13.3
2014-Jul-21 21:00N 49°06' W 143°48'0 0.0 1020.7 13.2
2014-Jul-21 20:00N 49°06' W 143°48'0 0.4 1020.3 13.2
2014-Jul-21 19:00N 49°07' W 143°48'0 0.0 1020.0 13.1
2014-Jul-21 18:00N 49°07' W 143°48'0 0.0 1019.8 13.1
2014-Jul-21 17:00N 49°07' W 143°48'1 1.0 1019.9 13.1
2014-Jul-21 16:00N 49°07' W 143°49'0 0.1 1019.9 13.1
2014-Jul-21 12:00N 49°08' W 143°49'2 0.8 1019.8 13.1
2014-Jul-21 10:00N 49°09' W 143°47'0 0.0 1020.2 13.1
2014-Jul-21 09:00N 49°09' W 143°47'0 0.0 1020.4 13.1
2014-Jul-21 08:00N 49°09' W 143°47'1 0.9 1020.6 13.1
2014-Jul-21 07:00N 49°10' W 143°47'0 0.0 1020.8 13.1
2014-Jul-21 05:00N 49°10' W 143°47'2 1.9 1020.8 13.2
2014-Jul-21 04:00N 49°12' W 143°48'1 0.7 1021.1 13.2
2014-Jul-21 02:00N 49°12' W 143°50'0 0.0 1021.7 13.2
2014-Jul-21 01:00N 49°12' W 143°50'1 0.9 1022.1 13.2
2014-Jul-21 00:00N 49°11' W 143°50'3 1.5 1022.5 13.2
2014-Jul-20 22:00N 49°12' W 143°46'3 1.4 1023.1 13.2
2014-Jul-20 20:00N 49°11' W 143°50'1 0.8 1023.5 13.2
2014-Jul-20 19:00N 49°12' W 143°49'1 1.3 1023.3 13.2
2014-Jul-20 18:00N 49°12' W 143°47'0 0.0 1023.3 13.2
2014-Jul-20 17:00N 49°12' W 143°47'1 1.3 1023.3 13.2
2014-Jul-20 16:00N 49°14' W 143°47'3 2.8 1023.3 13.2
2014-Jul-20 15:00N 49°14' W 143°51'2 2.5 1023.1 13.2
2014-Jul-20 14:00N 49°14' W 143°47'1 1.1 1022.9 13.3
2014-Jul-20 13:00N 49°15' W 143°49'1 0.8 1022.9 13.3
2014-Jul-20 12:00N 49°15' W 143°50'1 0.4 1023.1 13.3
2014-Jul-20 10:00N 49°15' W 143°48'0 0.0 1023.1 13.3
2014-Jul-20 06:00N 49°15' W 143°48'1 0.8 1022.6 13.7
2014-Jul-20 05:00N 49°16' W 143°49'1 1.5 1022.3 13.7
2014-Jul-20 04:00N 49°16' W 143°47'0 0.0 1022.2 13.9
2014-Jul-20 03:00N 49°16' W 143°47'0 0.1 1022.4 13.8
2014-Jul-20 00:00N 49°16' W 143°47'1 1.0 1023.1 13.4
2014-Jul-19 23:00N 49°17' W 143°47'0 0.0 1023.3 13.3
2014-Jul-19 22:00N 49°17' W 143°47'1 0.7 1023.4 13.2
2014-Jul-19 21:00N 49°18' W 143°47'0 0.0 1023.6 13.1
2014-Jul-19 20:00N 49°18' W 143°47'1 1.5 1023.3 13.1
2014-Jul-19 19:00N 49°19' W 143°48'1 0.7 1023.5 13.0
2014-Jul-19 18:00N 49°19' W 143°48'0 0.0 1023.3 13.0
2014-Jul-19 15:00N 49°19' W 143°48'0 0.0 1022.2 13.0
2014-Jul-19 14:00N 49°19' W 143°48'0 0.4 1021.8 13.0
2014-Jul-19 13:00N 49°19' W 143°47'1 0.7 1021.7 13.0
2014-Jul-19 12:00N 49°20' W 143°47'2 2.3 1021.8 13.0
2014-Jul-19 11:00N 49°22' W 143°48'0 0.0 1021.6 13.0
2014-Jul-19 08:00N 49°22' W 143°48'2 1.8 1020.5 13.0
2014-Jul-19 07:00N 49°24' W 143°47'0 0.0 1019.9 13.1
2014-Jul-19 06:00N 49°24' W 143°47'0 0.0 1019.2 13.1
2014-Jul-19 05:00N 49°24' W 143°47'0 0.0 1018.6 13.1
2014-Jul-19 04:00N 49°24' W 143°47'2 1.9 1018.4 13.1
2014-Jul-19 03:00N 49°25' W 143°48'0 0.0 1017.8 13.1
2014-Jul-19 02:00N 49°25' W 143°48'1 0.5 1017.8 13.1
2014-Jul-19 01:00N 49°25' W 143°48'1 0.8 1018.0 13.1
2014-Jul-19 00:00N 49°25' W 143°49'1 0.7 1017.8 13.1
2014-Jul-18 23:00N 49°26' W 143°48'0 0.0 1018.2 13.1
2014-Jul-18 21:00N 49°26' W 143°48'4 1.1 1018.3 13.1
2014-Jul-18 17:00N 49°30' W 143°49'0 0.0 1018.5 13.1
2014-Jul-18 16:00N 49°30' W 143°49'2 1.8 1018.2 13.1
2014-Jul-18 15:00N 49°31' W 143°52'0 0.0 1018.7 13.1
2014-Jul-18 14:00N 49°31' W 143°52'0 0.4 1018.8 13.1
2014-Jul-18 13:00N 49°31' W 143°52'1 0.4 1019.3 13.1
2014-Jul-18 11:00N 49°32' W 143°52'0 0.0 1020.2 13.1
2014-Jul-18 06:00N 49°32' W 143°52'1 1.0 1021.1 13.2
2014-Jul-18 05:00N 49°33' W 143°53'2 2.5 1021.1 13.2
2014-Jul-18 04:00N 49°35' W 143°52'0 0.0 1021.5 13.2
2014-Jul-18 03:00N 49°35' W 143°52'2 1.1 1021.8 13.2
2014-Jul-18 01:00N 49°37' W 143°54'1 1.4 1022.5 13.2
2014-Jul-18 00:00N 49°37' W 143°56'1 0.7 1022.8 13.2
2014-Jul-17 23:00N 49°38' W 143°56'3 1.3 1023.4 13.2
2014-Jul-17 21:00N 49°37' W 143°60'0 0.3 1024.5 13.2
2014-Jul-17 20:00N 49°37' W 143°60'1 0.3 1024.5 13.2
2014-Jul-17 18:00N 49°37' W 144°01'0 0.0 1025.1 13.1
2014-Jul-17 17:00N 49°37' W 144°01'1 1.5 1025.7 13.1
2014-Jul-17 16:00N 49°37' W 143°58'1 1.4 1025.8 13.1
2014-Jul-17 15:00N 49°39' W 143°58'1 0.9 1026.2 13.2
2014-Jul-17 14:00N 49°39' W 143°60'2 2.0 1026.5 13.1
2014-Jul-17 13:00N 49°41' W 144°01'0 0.0 1026.9 13.2
2014-Jul-17 12:00N 49°41' W 144°01'2 0.4 1026.9 13.2
2014-Jul-17 07:00N 49°41' W 144°04'0 0.4 1028.6 13.2
2014-Jul-17 06:00N 49°40' W 144°04'2 1.6 1028.4 13.2
2014-Jul-17 05:00N 49°40' W 144°02'0 0.0 1028.2 13.2
2014-Jul-17 04:00N 49°40' W 144°02'1 0.6 1028.2 13.2
2014-Jul-17 03:00N 49°41' W 144°02'0 0.0 1028.1 13.2
2014-Jul-17 02:00N 49°41' W 144°02'1 0.6 1028.2 13.2
2014-Jul-17 01:00N 49°42' W 144°03'0 0.1 1028.5 13.2
2014-Jul-17 00:00N 49°42' W 144°03'1 0.9 1028.8 13.2
2014-Jul-16 23:00N 49°42' W 144°04'1 1.0 1029.0 13.2
2014-Jul-16 22:00N 49°43' W 144°03'0 0.0 1029.0 13.2
2014-Jul-16 21:00N 49°43' W 144°03'1 1.1 1029.0 13.1
2014-Jul-16 20:00N 49°44' W 144°03'3 2.7 1028.9 13.1
2014-Jul-16 19:00N 49°44' W 144°07'0 0.0 1028.7 13.1
2014-Jul-16 18:00N 49°44' W 144°07'0 0.2 1028.6 13.1
2014-Jul-16 16:00N 49°44' W 144°08'0 0.4 1028.1 13.1
2014-Jul-16 15:00N 49°45' W 144°08'1 0.7 1027.4 13.1
2014-Jul-16 14:00N 49°44' W 144°08'1 0.9 1027.1 13.1
2014-Jul-16 13:00N 49°44' W 144°09'0 0.3 1026.9 13.1
2014-Jul-16 12:00N 49°45' W 144°09'0 0.0 1026.6 13.1
2014-Jul-16 11:00N 49°45' W 144°09'0 0.1 1026.4 13.1
2014-Jul-16 10:00N 49°45' W 144°09'1 0.3 1026.4 13.1
2014-Jul-16 08:00N 49°45' W 144°08'1 0.7 1025.9 13.2
2014-Jul-16 07:00N 49°46' W 144°09'   1025.8 13.2

Dump ship's entire track history